CW0099 Weather Reports


Display with metric or nautical units.
time (UTC)temp
F
wind
direction
speed
MPH
gust
MPH
rain 1hr
in
rain 24hr
in
rain mn
in
humidity
%
barometer
mb
20180425181040 66 354 0.0 5.0 0.00 0.00 0.00 64 1015.8
20180425175942 65 324 0.0 8.0 0.00 0.00 0.00 64 1015.9
20180425174840 65 339 2.0 7.0 0.00 0.00 0.00 63 1016.0
20180425172640 65 0 0.0 7.0 0.00 0.00 0.00 63 1016.3
20180425171540 64 17 3.0 7.0 0.00 0.00 0.00 64 1016.3
20180425170440 64 332 6.0 9.0 0.00 0.00 0.00 64 1016.6
20180425164240 64 0 3.0 7.0 0.00 0.00 0.00 64 1016.7
20180425162040 64 349 0.0 6.0 0.00 0.00 0.00 64 1016.8
20180425155840 63 1 0.0 9.0 0.00 0.00 0.00 64 1016.6
20180425153640 63 4 4.0 7.0 0.00 0.00 0.00 65 1016.6
20180425151440 62 11 2.0 8.0 0.00 0.00 0.00 65 1017.0
20180425145240 61 350 0.0 4.0 0.00 0.00 0.00 64 1016.5
20180425143040 61 294 0.0 5.0 0.00 0.00 0.00 66 1016.6
20180425141940 60 2 0.0 5.0 0.00 0.00 0.00 65 1016.5
20180425134640 59 359 3.0 8.0 0.00 0.00 0.00 67 1016.3
20180425133540 59 0 1.0 8.0 0.00 0.00 0.00 67 1016.4
20180425132440 58 8 0.0 8.0 0.00 0.00 0.00 69 1016.2
20180425130412 56 325 2.0 7.0 0.00 0.00 0.00 71 1016.2
20180425124040 55 343 3.0 7.0 0.00 0.00 0.00 72 1016.3
20180425122940 55 2 0.0 5.0 0.00 0.00 0.00 73 1016.1
20180425120742 53 329 0.0 0.0 0.00 0.00 0.00 76 1016.1
20180425115640 52 329 0.0 0.0 0.00 0.00 0.00 77 1016.1
20180425113440 52 329 0.0 0.0 0.00 0.00 0.00 79 1015.8
20180425111240 50 329 0.0 0.0 0.00 0.00 0.00 85 1015.3
20180425110140 49 329 0.0 0.0 0.00 0.00 0.00 89 1015.1
20180425103940 46 329 0.0 0.0 0.00 0.00 0.00 94 1014.9
20180425102840 45 329 0.0 0.0 0.00 0.00 0.00 95 1015.1
20180425092240 46 329 0.0 0.0 0.00 0.00 0.00 96 1014.3
20180425083840 47 329 0.0 1.0 0.00 0.00 0.00 96 1014.4
20180425082740 47 329 0.0 0.0 0.00 0.00 0.00 95 1014.6
20180425075440 48 329 0.0 0.0 0.00 0.00 0.00 94 1014.4
20180425071040 49 329 0.0 0.0 0.00 0.00 0.00 92 1014.3
20180425065940 49 329 0.0 0.0 0.00 0.00 0.00 92 1014.3
20180425064840 49 329 0.0 0.0 0.00 0.00 0.00 91 1014.3
20180425062640 50 329 0.0 0.0 0.00 0.00 0.00 91 1014.3
20180425060617 51 329 0.0 0.0 0.00 0.00 0.00 91 1014.6
20180425054240 52 329 0.0 0.0 0.00 0.00 0.00 90 1014.7
20180425052040 52 329 0.0 0.0 0.00 0.00 0.00 89 1014.6
20180425050941 53 329 0.0 0.0 0.00 0.00 0.00 88 1014.7
20180425044746 54 329 0.0 0.0 0.00 0.00 0.00 88 1014.7
20180425043640 54 329 0.0 0.0 0.00 0.00 0.00 87 1014.7
20180425042541 54 329 0.0 0.0 0.00 0.00 0.00 87 1014.8
20180425035040 55 329 0.0 0.0 0.00 0.00 0.00 84 1015.1
20180425031746 56 329 0.0 0.0 0.00 0.00 0.00 81 1014.8
20180425030640 57 329 0.0 0.0 0.00 0.00 0.00 80 1015.0
20180425025540 58 329 0.0 0.0 0.00 0.00 0.00 79 1015.2
20180425024440 58 329 0.0 0.0 0.00 0.00 0.00 78 1015.1
20180425022240 60 329 0.0 0.0 0.00 0.00 0.00 74 1015.1
20180425021140 60 329 0.0 0.0 0.00 0.00 0.00 71 1015.0
20180425020040 61 329 0.0 0.0 0.00 0.00 0.00 69 1015.0
20180425012740 64 329 0.0 0.0 0.00 0.00 0.00 65 1014.5
20180425011643 65 329 0.0 0.0 0.00 0.00 0.00 64 1014.5
20180425005440 68 329 0.0 0.0 0.00 0.00 0.00 58 1014.2
20180425001040 69 329 2.0 5.0 0.00 0.00 0.00 56 1014.1
20180424235940 69 347 0.0 6.0 0.00 0.00 0.00 56 1014.5
20180424234840 69 307 0.0 6.0 0.00 0.00 0.00 55 1014.3
20180424232640 70 3 3.0 8.0 0.00 0.00 0.00 54 1014.3
20180424231540 70 355 2.0 5.0 0.00 0.00 0.00 57 1014.2
20180424222040 69 0 0.0 12.0 0.00 0.00 0.00 62 1014.3
20180424213640 68 0 0.0 9.0 0.00 0.00 0.00 63 1014.3
20180424205241 66 1 0.0 10.0 0.00 0.00 0.00 69 1014.6
20180424204140 67 1 0.0 10.0 0.00 0.00 0.00 68 1014.6
20180424200841 65 349 0.0 9.0 0.00 0.00 0.00 75 1014.9
20180424193541 64 357 0.0 5.0 0.00 0.00 0.00 78 1015.3
20180424191340 62 359 0.0 7.0 0.00 0.00 0.00 82 1015.4
20180424190358 61 6 5.0 9.0 0.00 0.00 0.00 83 1015.7
20180424185048 61 23 3.0 9.0 0.00 0.00 0.00 83 1015.8
20180424183941 61 24 6.0 9.0 0.00 0.00 0.00 83 1015.7
20180424181740 60 30 3.0 7.0 0.00 0.00 0.00 84 1016.0